Hourly Data Report for December 09, 2017

All times are specified in Local Standard Time (LST). Add 1 hour to adjust for Daylight Saving Time where and when it is observed.

LA RONGE A
SASKATCHEWAN

55°09'05.000" N
105°16'01.000" W
379.20 m
4064155
71922
YVC

Download Data

Hourly Data (December 2017)
Hourly Data Report for December 9, 2017
Temp Definition
°C
Dew Point Temp Definition
°C
Rel Hum Definition
%
Wind Dir Definition
10's deg

Wind Spd Definition
km/h
Visibility Definition
km
Stn Press Definition
kPa
Hmdx Definition


Wind Chill Definition


Weather Definition


TIME
00:00 Legend Double Dagger -10.0 -11.1 92 15 7 24.1 97.04   -14 Mainly Clear
01:00 Legend Double Dagger -9.4 -10.4 92 15 12 24.1 96.87   -15 LegendNANA
02:00 Legend Double Dagger -9.3 -10.4 92 15 11 24.1 96.73   -15 LegendNANA
03:00 Legend Double Dagger -9.8 -11.0 91 17 9 24.1 96.59   -15 Clear
04:00 Legend Double Dagger -12.0 -13.3 90 25 3 24.1 96.52   -14 LegendNANA
05:00 Legend Double Dagger -10.2 -11.1 93 21 9 24.1 96.38   -15 LegendNANA
06:00 Legend Double Dagger -9.3 -10.4 92 25 7 24.1 96.32   -13 Clear
07:00 Legend Double Dagger -7.6 -9.0 90 27 10 24.1 96.37   -12 LegendNANA
08:00 Legend Double Dagger -6.9 -8.5 89 26 9 24.1 96.34   -11 LegendNANA
09:00 Legend Double Dagger -5.5 -7.6 85 26 9 24.1 96.29   -10 Mainly Clear
10:00 Legend Double Dagger -5.1 -7.6 83 27 13 24.1 96.31   -10 LegendNANA
11:00 Legend Double Dagger -4.1 -6.9 81 27 15 24.1 96.36   -9 LegendNANA
12:00 Legend Double Dagger -2.4 -6.0 76 27 11 24.1 96.42   -6 Mainly Clear
13:00 Legend Double Dagger -0.1 -5.0 70 27 11 24.1 96.38   -4 LegendNANA
14:00 Legend Double Dagger 1.9 -4.2 64 30 18 24.1 96.44     LegendNANA
15:00 Legend Double Dagger 1.9 -4.0 65 30 16 24.1 96.52     Mainly Clear
16:00 Legend Double Dagger 0.8 -4.2 69 30 13 24.1 96.60     LegendNANA
17:00 Legend Double Dagger -0.9 -4.7 75 32 8 24.1 96.62   -4 LegendNANA
18:00 Legend Double Dagger -3.4 -5.2 88 29 5 24.1 96.67   -5 Mostly Cloudy
19:00 Legend Double Dagger -3.7 -5.1 90 36 1 24.1 96.67   -4 LegendNANA
20:00 Legend Double Dagger -5.2 -6.0 94 36 3 24.1 96.73   -7 LegendNANA
21:00 Legend Double Dagger -6.4 -7.2 95 4 11 24.1 96.81   -11 Mostly Cloudy
22:00 Legend Double Dagger -5.5 -7.2 88 5 13 24.1 96.82   -11 LegendNANA
23:00 Legend Double Dagger -7.0 -8.7 88 4 13 24.1 96.81   -13 LegendNANA

Notes on Data Quality.

Legend

  • E = Estimated
  • M = Missing
  • NA = Not Available
  • ‡ = Partner data that is not subject to review by the National Climate Archives
Date modified: